Location: Unspecified
(0.0000°N, 0.0000°E)
Time: 03:11:42
(UTC+01:00)

Cosmos 1125 Rocket - Visible Passes

Search period start: 19 January 2017 00:00
Search period end: 29 January 2017 00:00
Orbit: 758 x 780 km, 74.0° (Epoch: 18 January)

Date Brightness Start Highest point End Pass type
(mag) Time Alt. Az. Time Alt. Az. Time Alt. Az.
19 Jan 4.7 20:35:12 10° NNW 20:40:06 43° WSW 20:45:02 10° S visible
20 Jan 3.5 19:58:16 10° NNW 20:03:27 90° WNW 20:08:40 10° SSE visible
22 Jan 6.1 20:28:04 10° NW 20:31:56 21° WSW 20:35:51 10° SSW visible
23 Jan 4.9 19:50:23 10° NNW 19:55:17 43° WSW 20:00:13 10° S visible
24 Jan 5.8 06:41:33 10° SSE 06:46:11 31° ESE 06:50:47 10° NE visible
25 Jan 6.7 06:06:29 10° SE 06:09:31 15° ESE 06:12:33 10° ENE visible
26 Jan 6.5 19:43:15 10° NW 19:47:07 21° WSW 19:51:03 10° SSW visible
27 Jan 4.1 06:32:47 10° S 06:38:02 64° ESE 06:43:14 10° NNE visible
28 Jan 5.5 05:56:44 10° SSE 06:01:23 31° ESE 06:05:59 10° NE visible
